sat.trackr.live / text

‹ back to catalog

ONEWEB-0081

NORAD 45429 · 2020-020F

PAYLOAD ACTIVE UNKNOWN

§ Identity

Operator
Country
UK
Launch date
2020-03-21
Launch site
TYMSC
Launch vehicle
Mass (kg)
RCS (m²)

Purposes: comms

External: N2YO · Heavens-Above · Gunter

§ Orbital elements

Epoch: 2026-09-08T20:20:36.915072Z

Period
109.81 min
Inclination
87.8967°
Eccentricity
0.0001939
Mean motion
13.11415511 rev/d
Perigee alt
1,216.2 km
Apogee alt
1,219.2 km
Semi-major
7,595.8 km
B*
1.4218e-3
RAAN
4.4321°
Arg perigee
107.9899°
Mean anomaly
252.1440°
Rev number
31,370

§ Raw data

ONEWEB-00811 45429U 20020F   26251.84764948  .00000517  00000+0  14218-2 0  99942 45429  87.8967   4.4321 0001939 107.9899 252.1440 13.11415511313705

JSON: /api/v1/satellites/45429 · /tle

For live sub-satellite position, see the globe view (requires WebGL).

§ Visibility from observer

Set your observer location to see the next 7 days of passes ≥ 10°. The values pass through the URL so the page stays shareable.

No JS? Fill the form by hand. The geolocation button needs JavaScript.